Lapse_Rate
6.3 6.4 5.8 5.8 6.5 6.5 6.0 5.9 5.6 5.2 5.9 5.3 5.2 5.0 5.7 5.7 5.7 5.6 5.5 5.5 5.5 5.5 5.7 5.9 5.8 5.7 5.7 5.7 5.7 5.7 5.7 5.7 5.7 5.7 5.9 6.0 6.2 6.3 6.2 6.0 5.8 6.1 6.4 6.5
6.4 6.1 6.3 6.4 6.6 6.4 6.0 5.9 5.9 6.2 6.3 6.2 5.8 5.3 5.7 6.0 5.9 5.5 5.3 5.2 5.3 5.4 5.4 5.4 5.6 5.6 5.7 5.7 5.6 5.6 5.6 5.7 5.7 5.8 5.8 6.0 6.2 6.1 6.1 6.1 6.1 6.2 6.6 6.7
6.1 6.2 6.2 6.2 6.2 6.0 5.7 5.9 6.2 5.9 6.3 6.3 6.0 5.5 5.6 5.9 5.8 5.5 5.3 5.0 5.0 4.9 5.0 5.2 5.3 5.3 5.4 5.6 5.7 5.6 5.7 5.8 5.9 6.0 6.0 6.2 6.3 6.2 6.2 5.9 6.0 6.1 6.3 6.5
6.0 6.0 6.0 6.0 6.2 5.7 5.6 5.8 6.0 6.1 6.0 7.0 6.1 7.9 5.6 5.1 5.7 5.5 5.2 5.1 5.0 5.0 5.0 5.1 5.0 5.0 5.2 5.4 5.6 5.7 5.7 5.7 5.8 5.8 5.8 5.9 5.9 6.0 6.1 6.0 6.0 6.2 6.4 6.4
6.1 5.6 5.7 5.3 5.8 6.0 6.0 6.0 5.9 5.6 5.9 5.9 5.6 6.3 6.1 5.5 5.7 6.1 5.7 5.4 5.2 5.1 5.0 4.8 4.7 4.7 5.0 5.2 5.4 5.6 5.7 5.6 5.6 5.7 5.7 5.8 5.8 5.9 6.0 6.2 6.2 6.3 6.3 6.4
6.1 5.7 5.8 5.8 5.8 5.9 5.9 5.8 5.5 5.4 5.6 6.8 5.8 6.3 7.3 5.9 6.1 5.6 5.8 5.5 5.1 4.8 4.5 4.4 4.4 4.5 4.8 4.9 5.0 5.2 5.3 5.4 5.5 5.5 5.5 5.6 5.7 5.8 5.8 5.8 5.8 5.9 6.0 6.1
5.5 5.6 5.6 5.4 5.5 5.5 5.5 5.2 5.8 6.3 6.3 7.1 5.9 5.8 7.0 6.4 6.4 6.2 6.0 5.8 5.4 4.8 4.6 4.4 4.3 4.4 4.6 4.6 4.6 4.8 5.0 5.1 5.1 5.2 5.2 5.3 5.5 5.5 5.4 5.4 5.4 5.5 5.6 5.7
5.4 5.3 5.4 5.5 5.3 5.0 5.0 5.3 5.9 6.4 7.2 7.1 5.5 6.8 6.5 6.9 6.7 6.5 6.3 6.0 5.6 5.0 4.7 4.4 4.4 4.4 4.4 4.4 4.4 4.5 4.6 4.8 4.9 4.9 5.0 5.1 5.1 5.1 5.1 5.1 5.1 5.2 5.3 5.5
5.8 5.6 5.6 5.6 5.5 5.4 5.4 5.2 5.9 5.4 5.5 5.8 6.9 6.2 6.7 6.8 6.6 6.6 6.4 6.2 5.9 5.4 4.8 4.5 4.5 4.5 4.6 4.6 4.6 4.6 4.8 4.8 4.8 4.9 5.0 5.0 4.8 4.8 4.9 5.0 5.0 5.0 5.1 5.3
6.0 5.8 5.5 5.6 5.4 5.4 5.6 5.7 5.3 5.7 5.1 5.5 6.8 6.6 7.4 6.5 6.6 6.5 6.3 6.1 5.8 5.4 4.9 4.7 4.6 4.7 4.7 4.8 4.7 4.8 4.8 4.9 4.9 4.8 4.8 4.9 4.8 4.7 4.7 4.7 4.8 4.7 4.8 4.9
6.1 6.0 5.2 5.1 5.2 4.9 5.4 5.3 5.6 5.6 5.5 6.5 7.3 7.5 6.9 6.6 6.4 6.3 6.3 6.1 5.7 5.3 5.0 4.9 4.8 4.9 4.9 4.9 5.0 5.0 4.9 5.0 5.1 5.1 5.1 5.1 5.1 5.0 4.9 4.8 4.8 4.7 4.6 4.6
6.1 6.0 5.5 5.1 5.8 5.5 5.6 5.1 5.5 5.7 5.4 5.1 5.6 6.7 6.7 6.7 6.4 6.2 6.1 6.0 5.7 5.5 5.4 5.0 5.0 5.0 5.0 4.9 5.0 5.0 5.0 5.1 5.2 5.2 5.2 5.2 5.2 5.3 5.3 5.2 5.1 5.0 4.8 4.9
5.9 5.6 5.6 5.2 5.2 5.3 5.5 5.7 5.8 5.6 5.6 5.2 5.9 6.8 6.5 6.5 6.1 5.9 5.7 5.7 5.6 5.5 5.5 5.3 5.1 5.0 5.0 4.9 4.9 5.0 5.0 5.0 5.0 4.9 5.0 5.1 5.3 5.3 5.3 5.4 5.4 5.2 5.1 5.0
5.7 6.0 6.1 6.2 6.4 6.4 6.1 6.3 5.9 5.2 5.2 5.8 5.7 6.5 6.0 6.1 6.0 5.7 5.6 5.4 5.4 5.4 5.3 5.2 5.1 5.1 5.1 5.0 5.0 4.9 4.8 4.9 4.9 5.0 5.1 5.2 5.3 5.3 5.3 5.3 5.3 5.2 5.2 5.2
5.5 5.7 5.7 6.0 6.0 6.1 6.1 6.3 6.1 6.0 6.1 5.7 6.5 5.9 5.5 5.9 5.7 5.5 5.4 5.3 5.3 5.4 5.3 5.2 5.2 5.3 5.2 4.9 4.9 4.9 4.8 4.7 4.8 4.9 5.0 5.1 5.2 5.2 5.1 5.1 5.1 5.1 5.1 5.1
5.2 5.4 5.5 5.6 5.6 5.7 5.8 6.0 5.8 6.1 5.9 5.6 5.4 5.9 5.9 5.7 5.6 5.6 5.5 5.2 5.1 5.2 5.2 5.1 5.2 5.1 4.9 4.8 4.6 4.6 4.6 4.7 4.9 5.0 5.1 5.1 5.0 5.1 5.1 5.1 5.1 5.1 5.1 5.2
5.5 5.2 5.2 5.0 5.3 5.1 5.3 6.4 6.5 6.4 6.4 6.2 5.4 5.6 5.7 5.5 5.5 5.5 5.3 5.0 5.0 5.1 5.1 5.1 5.0 4.9 4.7 4.6 4.7 4.9 4.9 4.9 4.9 4.8 4.8 4.8 4.7 4.8 4.7 4.8 4.9 5.0 5.0 5.1
5.4 5.2 5.1 4.9 4.8 4.5 5.9 6.5 6.5 6.2 6.3 6.3 6.2 5.9 5.4 5.3 5.4 5.3 5.1 4.9 4.8 4.6 4.7 5.0 4.9 4.9 4.8 4.8 4.8 4.8 4.7 4.6 4.4 4.5 4.5 4.5 4.7 4.8 4.9 5.0 5.0 5.1 5.0 5.0
5.3 5.1 5.0 5.1 4.4 5.3 5.9 6.5 6.3 6.1 5.9 6.1 6.1 6.0 5.7 5.6 5.4 5.3 5.2 4.8 4.6 4.5 5.0 4.9 4.8 4.8 4.8 4.8 4.8 4.7 4.4 4.3 4.4 4.5 4.7 4.7 4.8 4.9 4.8 4.7 4.5 4.5 4.5 4.4
5.4 5.3 5.0 4.9 4.9 5.3 5.9 6.3 6.2 6.1 5.6 6.0 5.8 5.8 5.6 5.3 5.1 5.1 5.0 4.9 4.7 4.7 4.7 4.8 5.0 4.9 4.8 4.7 4.6 4.4 4.4 4.5 4.6 4.7 4.7 4.7 4.5 4.3 4.1 4.0 3.9 3.7 3.6 3.0
5.3 4.8 5.0 5.1 5.0 5.4 6.1 6.0 5.8 5.3 5.5 5.7 5.6 5.5 5.5 5.2 5.2 4.6 4.6 4.7 4.8 4.8 5.0 5.0 4.9 4.8 4.6 4.4 4.4 4.4 4.4 4.5 4.6 4.6 4.5 4.3 4.1 3.7 3.3 2.8 2.3 1.9 1.6 1.4
6.4 5.9 5.6 5.0 4.7 5.1 5.9 5.8 5.5 5.6 5.6 5.5 5.6 5.7 5.5 5.2 5.0 4.6 4.7 4.8 4.8 4.9 4.8 4.7 4.7 4.5 4.5 4.6 4.6 4.5 4.5 4.5 4.5 4.4 4.1 3.6 3.2 2.8 2.5 2.4 2.3 2.2 2.0 1.3
6.1 6.1 6.3 6.2 5.8 5.8 5.9 5.9 5.8 5.7 5.6 5.5 5.5 5.4 5.1 5.0 4.7 4.6 4.6 4.8 4.7 4.6 4.6 4.6 4.4 4.5 4.5 4.4 4.4 4.5 4.4 4.3 4.1 3.7 3.3 3.0 2.7 2.4 2.1 1.9 1.7 1.7 1.3 1.8
6.3 6.3 6.0 6.1 6.0 5.8 5.7 5.7 5.7 5.5 5.4 5.4 5.1 4.9 4.8 4.5 4.3 4.4 4.5 4.4 4.5 4.5 4.5 4.4 4.4 4.4 4.3 4.2 4.3 4.2 4.1 3.8 3.3 2.9 2.7 2.5 2.2 1.8 1.7 1.6 1.6 2.1 2.8 3.2
6.3 6.4 6.3 6.1 6.1 5.8 5.9 5.8 5.5 5.3 5.3 5.1 5.0 4.8 4.5 4.3 4.3 4.3 4.3 4.4 4.5 4.4 4.2 4.3 4.4 4.4 4.3 4.3 4.1 3.7 3.3 3.1 2.8 2.5 2.2 1.9 1.6 1.5 1.6 1.8 2.4 3.7 4.3 4.7
6.2 6.4 6.3 6.0 5.9 5.8 5.5 5.5 5.5 5.3 5.1 4.9 4.7 4.5 4.4 4.2 4.3 4.4 4.5 4.4 4.3 4.3 4.3 4.4 4.4 4.3 4.2 3.9 3.6 3.3 3.0 2.7 2.5 2.1 1.7 1.3 1.6 1.8 2.4 3.1 3.7 4.7 5.5 6.0
Wind_Speed
4 13 13 6 1 2 9 12 13 9 5 2 4 14 15 12 9 8 8 7 6 5 5 4 3 3 4 6 8 9 10 10 8 6 6 6 6 6 11 12 14 15 15 16
10 11 6 5 8 12 14 14 12 8 4 1 6 12 12 12 10 9 9 8 7 6 6 5 4 2 3 5 6 8 9 10 10 8 7 6 5 7 8 10 11 14 14 14
6 10 6 10 13 14 7 8 9 7 8 3 8 10 14 14 11 10 9 6 7 6 5 5 4 2 2 3 3 4 6 6 8 9 8 4 5 6 6 7 9 10 11 13
8 3 9 12 9 3 8 7 7 11 8 1 5 1 17 18 17 15 14 12 10 8 5 3 4 3 2 0 1 2 3 4 6 8 7 9 8 8 7 6 9 9 9 9
4 7 12 12 5 2 6 8 8 7 3 4 8 5 8 14 18 19 17 15 12 10 8 5 5 3 2 1 3 3 4 5 5 6 7 7 8 6 6 7 9 9 9 9
7 2 3 3 4 2 15 11 8 5 3 4 1 4 9 8 15 14 18 17 15 12 10 6 5 5 4 4 6 6 6 5 5 6 6 6 7 7 7 8 7 7 8 8
5 4 3 1 10 8 6 11 3 4 4 1 3 5 4 6 5 6 16 18 17 14 12 9 8 7 5 4 6 6 7 7 6 7 8 8 8 8 9 8 7 8 6 6
7 6 5 1 3 3 11 5 3 4 3 3 5 6 3 4 3 5 7 15 17 15 12 11 9 7 5 5 5 5 6 8 8 8 9 9 10 8 8 8 8 7 7 7
6 4 3 2 1 3 6 6 3 2 2 3 4 3 6 6 5 5 10 13 18 16 14 12 9 8 6 5 4 5 8 10 11 11 11 12 11 12 11 13 14 11 14 13
5 5 2 4 2 5 2 5 2 1 3 4 4 5 3 7 7 7 9 13 16 15 13 11 8 6 4 5 6 7 9 11 12 12 11 11 12 15 16 16 14 14 17 18
7 4 5 4 8 8 4 4 0 1 3 3 3 2 4 4 3 6 8 12 15 14 12 8 4 3 4 4 4 5 6 8 9 9 10 10 11 13 15 12 15 17 19 19
3 4 5 2 2 1 3 5 9 3 4 3 4 3 4 1 2 4 6 10 12 9 5 3 1 2 4 4 5 7 8 8 9 10 10 10 10 11 10 11 14 16 15 18
9 4 5 4 4 4 7 9 3 1 1 8 4 2 3 2 5 6 8 9 8 6 5 7 7 6 6 6 7 8 9 9 10 11 11 11 12 12 12 12 15 16 16 17
4 3 3 5 3 5 5 8 4 2 4 6 11 6 7 5 7 8 8 8 9 9 8 8 7 7 7 7 8 8 9 10 11 11 11 12 12 13 13 14 16 17 19 16
3 3 2 2 2 3 3 7 15 10 9 9 3 9 5 10 9 9 11 11 11 10 8 7 6 6 6 7 7 8 8 9 10 11 11 12 13 13 14 15 16 20 20 19
2 2 4 3 2 5 7 10 13 17 17 17 15 11 5 10 9 12 12 11 10 9 8 7 6 5 6 7 7 8 8 9 10 11 12 13 13 14 15 16 16 17 17 17
6 6 4 3 2 3 8 19 19 10 11 14 12 11 12 10 12 12 12 10 9 8 7 6 5 5 5 6 7 8 9 10 11 12 13 14 14 15 16 17 17 18 19 19
7 6 1 2 4 4 2 2 4 18 9 15 6 5 9 9 9 8 9 9 9 8 7 5 4 4 4 6 8 9 10 10 12 13 13 14 15 16 17 17 17 18 17 18
3 4 2 3 5 7 6 5 4 7 3 15 13 8 10 12 11 8 8 8 8 7 6 5 3 3 5 7 8 10 11 12 12 12 14 14 15 16 17 18 18 17 16 17
5 1 3 3 3 4 3 4 3 3 5 4 11 12 15 14 8 6 11 10 9 7 5 3 3 3 5 7 9 11 12 13 12 13 14 15 15 16 17 17 17 17 17 18
4 2 5 4 4 5 4 5 6 4 2 6 9 12 15 11 4 14 11 9 7 6 4 1 2 5 7 8 10 12 13 13 12 13 14 14 15 16 16 17 17 18 18 18
8 8 4 4 4 7 9 7 4 3 5 7 9 12 13 10 12 12 10 8 6 4 2 2 6 8 9 10 12 14 14 12 12 13 14 14 15 13 14 18 17 18 18 18
5 4 3 7 1 4 3 3 2 1 7 7 9 10 11 12 11 9 7 6 4 1 3 5 8 11 11 11 12 14 13 13 13 14 14 14 16 16 17 18 18 15 16 15
6 5 3 3 5 4 1 1 2 6 9 11 11 12 10 10 9 7 6 3 1 2 5 8 11 13 13 12 12 13 13 13 14 14 15 14 15 15 16 14 14 14 14 14
1 9 6 2 3 4 2 4 8 12 13 14 11 10 10 10 7 5 4 1 3 5 8 10 12 13 14 12 13 13 12 12 13 14 14 15 13 15 16 14 14 14 16 13
6 5 5 1 8 2 11 11 13 13 12 12 12 11 10 8 7 5 2 3 7 9 11 11 13 14 14 13 13 13 12 12 13 14 12 12 12 13 14 14 14 18 14 17
Wind_Direction
89 137 142 115 4 96 130 131 120 105 107 147 123 148 163 171 187 176 161 157 158 149 124 111 94 79 57 58 54 45 48 41 32 36 30 35 34 28 30 24 21 21 20 17
132 118 101 97 129 131 129 124 113 96 97 346 145 164 173 182 196 193 189 184 176 163 172 168 163 126 58 54 40 41 38 37 27 38 36 28 25 36 20 17 16 14 16 19
129 118 148 142 132 123 106 126 153 130 135 106 160 187 194 200 208 205 212 216 189 190 174 172 179 156 95 68 41 24 32 27 34 3 27 46 72 65 34 17 13 18 11 15
68 112 159 158 126 182 129 112 133 144 192 155 216 79 199 197 205 210 208 204 206 199 205 201 193 184 178 67 332 314 351 3 29 3 23 20 29 22 20 14 8 357 8 13
78 130 146 147 113 272 131 158 139 153 165 222 183 254 109 197 211 210 209 203 203 199 198 199 198 194 208 189 264 284 298 308 323 335 341 347 14 16 12 14 2 4 0 358
85 78 14 68 71 222 137 140 142 172 203 225 109 261 152 176 223 215 203 202 198 194 193 204 191 191 214 211 243 256 269 282 291 296 308 316 329 338 342 352 345 358 354 347
131 53 81 175 112 140 214 174 164 190 190 150 151 229 354 164 167 212 200 197 195 189 188 198 194 199 211 206 224 244 254 272 275 279 286 293 300 306 306 317 327 326 334 339
165 172 180 59 314 238 185 254 253 216 189 124 182 228 131 140 192 231 233 195 188 188 190 199 194 196 198 214 235 253 279 289 301 298 294 290 287 289 297 297 302 300 309 310
158 126 123 53 91 318 164 218 7 81 31 267 213 206 210 207 195 191 196 191 185 187 190 198 198 207 223 247 266 295 302 301 303 303 298 292 286 280 280 285 285 286 291 289
155 122 186 136 187 85 282 115 178 61 153 243 216 257 192 170 171 168 178 189 185 185 189 199 205 213 254 280 292 295 299 301 307 309 304 297 295 291 286 284 281 284 286 288
149 129 142 190 208 186 152 193 259 224 271 268 278 182 55 125 169 174 180 186 183 186 192 197 207 227 263 309 346 4 4 356 354 348 342 329 317 309 303 296 294 293 293 288
137 115 150 160 117 275 263 235 195 199 196 235 307 287 123 277 226 191 170 178 178 182 174 204 205 121 86 62 44 37 20 8 359 351 352 351 347 341 334 325 318 314 305 299
175 152 123 158 186 198 216 194 90 88 224 209 207 215 125 154 183 177 163 162 168 177 144 115 102 85 68 50 39 29 19 7 360 356 354 357 353 349 343 338 333 327 321 314
171 164 201 202 120 123 187 184 198 178 189 222 233 239 182 160 152 157 157 158 145 131 121 109 94 75 55 38 28 20 15 6 357 354 353 355 349 344 339 335 332 328 325 318
246 165 135 134 121 195 214 196 186 202 211 223 303 234 208 176 165 159 149 142 140 130 117 100 85 66 45 32 22 17 11 4 357 353 349 347 342 335 333 331 327 325 322 319
158 174 179 167 174 235 253 220 210 218 236 246 256 255 178 161 153 154 157 153 146 133 117 99 81 60 43 29 15 10 3 355 347 342 336 335 333 330 328 325 322 320 319 317
161 152 182 183 166 241 273 235 210 207 207 223 235 254 166 181 181 170 160 157 150 133 118 101 83 59 33 18 5 357 347 341 338 333 331 331 330 327 326 324 322 321 319 315
159 143 70 129 145 224 76 72 246 221 238 219 244 183 185 176 150 148 153 151 144 134 123 106 82 50 21 4 357 344 338 331 326 325 328 328 328 323 321 319 317 317 315 314
184 145 132 178 212 312 204 201 186 186 247 214 211 174 144 132 137 143 148 141 132 126 113 108 86 32 1 354 343 332 324 327 325 327 325 325 323 322 321 320 320 316 314 314
106 100 229 181 211 238 84 146 190 191 252 169 180 170 158 161 196 156 158 141 136 136 134 110 40 353 333 334 330 326 322 324 325 329 323 322 322 319 319 317 316 313 308 306
155 160 209 196 237 277 127 144 168 220 50 147 165 165 166 181 44 126 143 144 148 148 142 94 309 316 329 328 328 320 322 321 329 321 318 317 315 314 313 314 315 312 310 309
172 165 188 178 207 251 153 145 229 53 129 142 154 161 161 120 125 134 143 145 153 169 182 300 316 320 322 324 325 320 318 326 320 316 312 314 316 316 316 318 314 312 309 310
207 214 199 206 212 89 136 46 69 97 138 135 134 145 143 136 137 145 139 148 164 118 331 328 317 317 317 322 320 313 317 319 317 312 312 317 319 319 324 315 314 312 313 318
205 183 224 185 162 153 148 144 130 134 128 121 121 122 129 127 135 135 138 148 157 310 322 320 318 317 316 318 315 311 316 316 313 312 317 318 318 325 316 315 314 313 314 312
118 163 181 195 169 132 133 143 129 117 113 113 108 109 112 121 124 121 108 87 315 315 322 326 317 314 313 315 312 313 317 318 313 316 313 317 321 319 316 313 302 309 307 309
188 173 195 220 143 82 140 139 130 122 117 114 113 102 94 101 100 90 63 329 325 334 325 319 317 314 314 313 309 312 318 318 313 311 313 321 316 315 309 314 312 301 285 289